Snowfall_Accumulation
0.0 0.0 0.0 0.0 0.0 0.0 0.0 0.0 0.0 0.0 0.0 0.0 0.0 0.0 0.0 0.0 0.0 0.0 0.0 0.0 0.0 15.1 5.1 3.5 4.9 7.0 8.3 8.9 12.0 9.7 13.3 14.6 16.7 23.5 16.5 9.4 7.8 4.7 3.5 2.6 2.6 2.6 4.3 6.0 11.1 21.6 10.0 0.7 0.2 1.5 1.2 0.1 0.1 0.0
0.0 0.0 0.0 0.0 0.0 0.0 0.0 0.0 0.0 0.0 0.0 0.0 0.0 0.0 0.0 0.0 0.0 0.0 0.0 0.0 0.0 9.5 10.3 0.0 0.0 0.0 6.3 7.1 8.9 10.8 13.1 9.2 9.5 15.6 15.4 8.5 7.1 5.8 3.2 4.6 1.6 4.8 3.6 3.1 2.1 2.3 0.5 0.8 1.1 1.0 0.6 0.3 0.0 0.2
0.0 0.0 0.0 0.0 0.0 0.0 0.0 0.0 0.0 0.0 0.0 0.0 0.0 0.0 0.0 0.0 0.0 0.0 0.0 0.0 0.0 18.5 11.7 3.6 3.8 1.6 0.2 3.3 1.3 15.2 12.0 8.6 9.3 6.0 11.8 12.0 12.9 7.2 6.2 4.5 2.4 1.7 2.9 4.0 3.5 1.7 0.4 0.1 0.7 0.4 0.0 0.1 0.0 0.1
0.0 0.0 0.0 0.0 0.0 0.0 0.0 0.0 0.0 0.0 0.0 0.0 0.0 0.0 0.0 0.0 0.0 0.0 0.0 0.0 0.0 14.4 19.8 5.6 0.0 1.4 0.0 0.0 0.0 2.5 5.0 4.9 7.8 9.3 21.8 19.7 14.9 3.5 2.8 1.7 1.8 1.3 0.9 1.4 2.8 3.4 1.6 1.4 0.6 0.5 0.3 0.0 0.0 0.0
0.0 0.0 0.0 0.0 0.0 0.0 0.0 0.0 0.0 0.0 0.0 0.0 0.0 0.0 0.0 0.0 0.0 0.0 0.0 0.0 0.0 4.2 16.1 5.1 1.8 1.8 0.0 0.0 0.0 0.0 1.1 4.9 15.1 22.4 27.1 19.0 8.2 8.0 6.5 5.0 4.7 2.8 2.5 1.5 0.8 0.3 1.4 0.5 0.2 0.1 1.2 0.6 0.3 0.1
0.0 0.0 0.0 0.0 0.0 0.0 0.0 0.0 0.0 0.0 0.0 0.0 0.0 0.0 0.0 0.0 0.0 0.0 12.4 0.0 0.0 0.0 26.3 16.5 3.0 2.6 0.6 0.0 0.3 1.3 0.9 7.0 14.4 19.8 19.9 11.2 6.1 8.0 14.4 6.1 2.6 3.1 2.9 3.1 3.1 1.5 1.7 1.1 1.0 0.9 1.6 1.2 0.9 0.4
0.0 0.0 0.0 0.0 0.0 0.0 0.0 0.0 0.0 0.0 0.0 0.0 0.0 0.0 0.0 0.0 0.0 13.5 6.1 0.5 0.0 0.0 28.4 21.0 9.4 3.4 1.7 0.6 0.9 1.3 1.7 4.0 10.4 18.3 14.1 7.9 5.8 11.3 17.7 6.5 2.4 2.7 2.9 3.5 4.7 4.1 3.3 3.2 3.4 1.7 2.1 2.5 2.9 2.0
0.0 0.0 0.0 0.0 0.0 0.0 0.0 0.0 0.0 0.0 0.0 0.0 0.0 0.0 0.0 0.0 0.0 9.3 2.0 0.0 0.0 7.3 25.1 28.6 11.2 4.8 2.2 5.6 4.6 1.4 5.9 9.1 10.5 10.3 4.9 2.2 2.8 10.2 11.2 2.7 3.0 3.1 3.1 2.8 3.4 3.7 4.1 4.9 4.5 4.3 3.9 3.5 3.6 4.2
0.0 0.0 0.0 0.0 0.0 0.0 0.0 0.0 0.0 0.0 0.0 0.0 0.0 0.0 0.0 3.3 21.7 12.8 0.0 0.0 0.0 7.3 23.2 17.8 8.3 6.8 1.3 3.7 4.2 5.6 6.0 15.9 6.3 7.4 1.6 1.6 3.8 6.8 1.8 2.4 2.6 2.7 3.4 3.8 4.2 4.0 4.4 3.6 3.4 3.6 3.7 3.8 3.1 4.2
0.0 0.0 0.0 0.0 0.0 0.0 0.0 0.0 0.0 0.0 0.0 0.0 0.0 23.4 43.7 19.2 0.0 3.3 6.8 20.8 27.0 24.2 19.3 10.2 5.9 7.0 3.7 5.9 6.3 5.6 7.7 7.3 8.9 2.1 0.2 6.9 0.8 1.1 1.9 3.1 3.9 4.3 4.1 4.9 5.2 7.1 4.6 4.2 2.7 3.4 3.6 3.8 3.1 3.5
0.0 0.0 0.0 0.0 0.0 0.0 0.0 0.0 0.0 0.0 0.0 2.1 35.8 32.0 15.2 1.2 6.4 15.3 43.3 39.1 26.2 17.7 6.3 5.2 5.2 4.7 1.0 7.8 7.3 4.8 12.5 8.0 10.3 5.9 3.5 4.8 4.0 6.6 5.2 5.1 5.7 4.7 4.7 4.9 5.1 5.6 6.0 7.3 6.8 4.8 4.1 3.4 2.8 2.9
0.0 0.0 0.0 0.0 0.0 0.0 0.0 0.0 0.0 0.2 0.6 0.2 4.3 5.8 12.9 20.8 45.6 43.8 32.2 16.5 5.5 3.0 2.3 6.3 5.3 2.7 4.2 2.4 9.3 8.6 10.3 9.9 8.7 8.5 12.5 5.7 6.1 3.3 5.5 6.9 5.9 4.5 5.1 5.1 5.4 6.3 6.3 5.7 6.5 7.1 5.6 5.3 4.9 4.7
0.0 0.0 0.0 0.0 0.0 0.0 0.0 0.0 0.0 0.0 5.8 8.7 30.9 48.5 46.1 45.0 39.1 25.1 10.0 6.8 3.1 4.0 4.8 6.7 5.8 5.8 8.0 10.0 14.7 10.3 11.7 6.1 1.3 7.8 6.1 5.7 3.3 3.9 4.8 5.5 4.9 6.0 8.3 7.0 6.3 6.5 7.1 6.9 6.4 7.5 7.3 5.0 4.8 4.6
0.0 0.0 0.0 0.0 0.0 0.0 0.0 0.0 0.0 0.7 5.7 34.5 52.3 47.5 30.7 27.5 9.6 5.8 4.2 3.8 2.5 1.8 1.6 3.1 4.8 8.2 9.2 15.6 15.6 15.3 7.5 5.4 8.8 6.8 5.1 2.2 2.7 3.5 3.9 3.8 4.4 4.2 6.1 6.8 7.7 7.2 7.5 7.8 6.9 6.4 6.0 4.9 4.6 3.5
0.0 0.0 0.0 0.0 0.0 0.0 0.0 0.0 0.0 1.1 21.7 51.6 41.1 27.5 16.0 6.0 5.0 5.6 5.0 3.3 2.6 3.2 5.6 6.6 9.5 8.9 11.2 21.5 14.5 8.7 9.7 8.6 8.0 5.4 3.0 1.7 2.1 2.5 2.6 2.8 3.4 4.0 5.3 5.7 5.0 4.6 6.2 6.2 6.7 5.6 4.6 4.7 4.0 3.7
0.0 0.0 0.0 0.0 0.0 0.0 0.0 0.0 3.1 17.6 48.0 46.8 32.0 12.2 2.6 2.3 3.6 3.7 4.9 5.5 4.7 5.9 8.8 15.2 21.1 19.2 13.8 14.4 12.5 6.6 7.5 5.1 4.8 2.8 1.4 1.6 1.6 1.4 1.9 1.8 2.7 4.2 4.6 6.0 7.1 4.7 4.3 6.2 6.0 4.7 3.8 3.9 3.6 3.1
0.0 2.4 0.0 0.0 0.0 0.0 1.0 10.9 43.6 66.9 55.1 41.2 16.0 3.1 3.0 3.4 5.3 5.6 6.6 7.6 8.0 12.9 20.0 25.4 25.2 13.2 13.5 10.9 7.0 4.0 4.1 3.0 2.8 2.2 1.6 1.4 2.4 2.5 2.3 1.8 2.1 3.1 3.1 4.7 7.3 5.2 5.3 6.8 7.8 6.6 4.7 3.6 3.1 3.5
0.6 0.0 0.0 0.0 0.8 2.7 29.5 41.5 49.0 61.8 43.4 15.1 4.6 2.4 2.1 3.2 4.2 5.2 6.6 7.9 15.3 19.9 23.3 28.6 20.2 16.5 8.7 4.6 2.0 2.8 3.5 3.7 3.9 4.6 4.6 3.7 3.4 2.8 2.6 2.4 2.5 2.7 3.8 5.4 7.5 6.3 6.5 7.2 7.0 5.8 4.7 5.2 4.8 5.0
0.8 0.0 0.1 0.0 1.0 37.3 73.0 65.4 42.8 38.2 12.2 3.7 2.5 2.3 2.4 3.5 4.2 5.4 7.5 11.7 15.4 16.1 22.8 27.3 24.2 11.6 4.2 3.2 3.6 3.8 6.0 7.2 7.3 6.6 5.5 5.1 3.8 3.2 2.7 3.0 2.7 2.1 2.7 4.2 4.6 5.4 5.8 5.4 5.0 6.0 4.8 3.8 4.8 4.6
0.0 3.4 0.0 0.1 0.0 56.1 62.5 51.7 27.5 13.2 7.6 3.7 3.1 3.7 3.7 4.1 5.9 7.6 12.4 17.2 21.0 23.4 25.7 19.6 6.0 4.3 5.6 6.1 8.2 8.6 7.1 7.0 8.1 7.1 5.5 5.2 4.7 3.9 3.6 3.0 2.7 2.7 2.5 3.3 4.2 4.8 6.8 6.0 6.0 6.9 6.0 5.5 6.2 5.6
6.6 17.5 10.4 7.6 47.8 59.3 47.9 33.2 17.2 11.0 5.1 3.6 5.1 3.9 5.9 6.2 7.4 10.8 13.1 16.5 22.6 20.1 10.3 6.0 5.5 6.7 8.2 8.4 7.8 8.1 6.8 6.9 8.2 9.2 8.2 7.2 5.7 5.8 5.9 4.1 2.8 2.6 3.2 3.5 4.4 5.5 8.0 6.6 6.2 6.2 6.3 6.3 6.5 7.5
32.7 16.1 48.1 47.5 70.5 62.9 44.1 22.7 11.2 6.6 4.5 5.2 5.3 5.4 7.3 8.2 9.1 11.1 12.8 14.3 14.7 8.7 7.1 8.5 8.9 8.6 7.1 7.0 8.4 8.5 8.7 7.4 7.0 7.4 7.0 8.4 7.7 6.1 6.9 6.0 3.8 3.7 3.9 5.1 6.0 6.7 6.6 6.8 7.7 8.1 7.6 8.2 8.2 8.7
20.9 34.4 66.9 65.1 58.8 49.5 30.5 12.2 6.5 6.9 6.5 8.1 6.7 8.2 8.6 7.7 8.0 9.3 11.0 9.0 7.5 8.5 8.6 9.4 9.2 10.2 9.2 8.8 8.1 7.8 8.1 7.4 6.1 5.8 6.3 6.0 5.8 6.0 6.8 6.8 7.0 8.2 7.3 8.0 8.4 8.8 8.0 8.3 8.5 7.8 7.3 7.0 6.0 7.5
14.6 60.6 64.4 54.8 40.7 30.0 18.4 13.4 10.6 7.2 9.1 8.3 7.8 8.1 7.2 5.8 7.1 8.2 7.2 5.4 6.8 7.8 7.0 7.1 7.2 6.3 5.5 5.4 5.8 6.6 7.8 7.5 6.1 5.2 6.9 8.1 5.0 4.8 5.3 6.4 7.4 8.7 9.4 9.1 8.5 8.1 7.3 7.8 8.6 8.5 7.1 7.1 6.4 5.6
69.1 71.6 53.1 43.9 26.5 14.1 8.1 6.8 6.3 6.2 6.1 6.4 6.7 6.9 6.3 6.0 7.0 6.8 4.7 5.4 6.0 6.4 6.5 6.4 6.0 6.8 7.1 4.1 5.1 5.7 6.8 9.5 9.4 7.7 5.1 9.0 8.3 5.6 4.8 4.9 5.5 6.7 8.1 8.5 7.2 6.4 6.6 7.4 8.0 7.4 7.9 7.2 6.7 6.1
59.2 37.4 25.1 11.9 7.5 3.2 3.2 3.3 3.4 3.5 4.0 6.1 6.2 4.4 4.1 6.4 7.4 5.2 4.2 5.2 5.3 5.5 6.2 5.9 5.6 4.2 3.6 6.0 7.0 6.3 6.3 9.0 10.1 7.6 5.1 7.9 10.7 12.0 8.9 6.9 5.5 5.0 7.4 7.8 8.5 7.0 6.4 5.8 5.9 6.2 8.0 7.8 6.7 7.1
44.9 25.4 11.7 4.1 3.0 2.9 3.3 3.5 3.6 4.6 5.5 5.7 4.4 3.8 5.2 7.9 3.5 3.9 5.2 6.0 5.9 4.9 5.4 5.9 6.7 7.1 6.0 4.8 4.5 5.3 8.4 10.8 12.9 10.2 8.6 8.9 8.5 9.9 11.4 11.6 8.4 6.5 9.7 10.6 9.4 6.9 6.7 5.4 4.7 3.5 4.9 5.4 5.7 5.4
18.3 8.4 3.9 4.7 4.8 4.8 6.1 5.4 5.1 4.7 5.3 4.6 5.0 4.9 6.1 4.9 3.5 4.1 4.6 4.3 4.8 4.8 5.4 6.1 6.7 7.3 8.3 7.9 8.1 8.2 8.3 9.5 9.2 8.0 7.1 6.8 7.1 7.2 7.9 9.2 9.6 10.4 10.4 8.4 8.5 8.3 7.0 5.6 5.5 4.9 4.4 4.4 5.5 5.7
5.3 3.2 3.0 4.0 5.1 6.2 6.6 5.3 4.9 4.6 4.4 4.5 4.0 3.2 3.1 2.7 3.9 4.0 3.5 4.0 3.7 4.1 4.1 5.0 4.1 5.9 6.8 7.4 8.1 9.7 10.1 10.1 8.7 6.9 6.0 5.3 4.4 4.3 6.7 7.9 8.2 8.3 8.4 9.0 8.9 9.3 8.5 8.5 9.5 9.5 7.8 6.9 7.4 8.1
2.1 2.3 3.7 4.2 5.3 5.6 4.8 5.1 5.0 4.9 5.1 4.8 3.4 2.7 2.4 3.1 4.4 4.5 3.6 3.1 3.1 3.6 4.3 4.7 4.8 4.7 5.2 5.0 5.4 5.8 7.1 7.6 10.7 11.1 9.1 6.6 7.2 9.2 9.7 9.4 8.9 9.0 8.2 7.3 8.7 10.8 9.9 8.9 9.8 8.8 7.4 6.8 6.5 6.5
2.4 2.8 3.1 3.2 3.2 3.1 3.7 3.2 3.2 2.7 3.2 3.1 3.2 3.3 3.3 3.6 3.6 4.1 3.2 3.4 3.6 3.5 3.4 3.2 3.0 4.3 5.2 5.1 6.2 6.1 4.6 5.2 6.6 6.9 8.0 9.3 8.3 8.4 8.9 9.8 9.4 9.4 9.0 8.3 7.0 7.1 6.7 6.2 5.9 6.1 5.8 6.0 6.3 5.9
2.6 2.8 2.6 2.7 2.4 2.8 2.6 2.0 1.6 1.2 1.3 1.4 2.2 2.5 3.0 3.1 2.6 2.0 2.0 1.6 1.5 1.7 3.3 3.9 4.0 4.0 6.1 7.8 8.6 9.9 12.2 10.0 7.0 7.7 8.5 9.1 8.7 8.2 8.8 8.6 9.3 9.1 8.7 8.0 7.2 7.3 6.5 6.5 7.2 6.8 6.8 7.2 7.0 6.4
3.5 2.7 2.3 1.8 2.7 2.5 2.2 1.6 1.5 1.2 1.1 1.0 0.9 1.4 1.6 1.2 1.0 0.9 1.1 2.0 3.4 3.7 3.6 4.5 5.2 6.4 7.4 8.4 8.8 8.9 8.5 7.4 9.1 10.2 11.4 11.7 11.8 11.1 10.3 10.6 10.2 8.6 7.2 6.9 7.4 7.7 7.8 7.1 7.4 7.0 6.7 6.6 6.8 6.5